Time,TemperatureF,DewpointF,PressureIn,WindDirection,WindDirectionDegrees,WindSpeedMPH,WindSpeedGustMPH,Humidity,HourlyPrecipIn,Conditions,Clouds,dailyrainin,SoftwareType,DateUTC
2013-04-05 00:03:00,57.2,52.4,30.09,NW,304,5.0,5.0,84,0.00,,FEW023,0.00,VWS V14.01,2013-04-05 07:03:00,
2013-04-05 00:08:00,57.5,52.1,30.08,WNW,286,6.0,11.0,82,0.00,,FEW023,0.00,VWS V14.01,2013-04-05 07:08:00,
2013-04-05 00:13:00,57.6,52.2,30.08,SSE,166,0.0,11.0,82,0.00,,FEW023,0.00,VWS V14.01,2013-04-05 07:13:00,
2013-04-05 00:18:00,57.6,52.2,30.08,West,277,2.0,11.0,82,0.00,,FEW023,0.00,VWS V14.01,2013-04-05 07:18:00,
2013-04-05 00:23:00,57.5,52.1,30.08,North,6,1.0,11.0,82,0.00,,FEW023,0.00,VWS V14.01,2013-04-05 07:23:00,
2013-04-05 00:28:00,57.5,52.1,30.08,West,266,3.0,11.0,82,0.00,,FEW023,0.00,VWS V14.01,2013-04-05 07:28:00,
2013-04-05 00:33:00,57.4,52.3,30.09,SSE,157,0.0,2.0,83,0.00,,FEW023,0.00,VWS V14.01,2013-04-05 07:33:00,
2013-04-05 00:38:00,57.2,52.1,30.09,SSE,152,0.0,4.0,83,0.00,,FEW023,0.00,VWS V14.01,2013-04-05 07:38:00,
2013-04-05 00:43:00,57.1,52.0,30.09,South,190,1.0,4.0,83,0.00,,FEW023,0.00,VWS V14.01,2013-04-05 07:43:00,
2013-04-05 00:48:00,57.0,51.9,30.09,South,179,0.0,5.0,83,0.00,,FEW023,0.00,VWS V14.01,2013-04-05 07:48:00,
2013-04-05 00:53:00,56.9,51.8,30.09,SSW,207,0.0,5.0,83,0.00,,FEW023,0.00,VWS V14.01,2013-04-05 07:53:00,
2013-04-05 00:58:00,57.0,51.9,30.09,SSE,159,0.0,5.0,83,0.00,,FEW023,0.00,VWS V14.01,2013-04-05 07:58:00,
2013-04-05 01:03:00,56.9,51.8,30.09,SSW,203,0.0,0.0,83,0.00,,BKN028,0.00,VWS V14.01,2013-04-05 08:03:00,
2013-04-05 01:08:00,56.7,51.9,30.09,SSW,203,0.0,2.0,84,0.00,,BKN028,0.00,VWS V14.01,2013-04-05 08:08:00,
2013-04-05 01:13:00,56.3,51.9,30.10,SSW,203,0.0,2.0,85,0.00,,BKN028,0.00,VWS V14.01,2013-04-05 08:13:00,
2013-04-05 01:18:00,56.1,51.7,30.10,SSW,198,0.0,2.0,85,0.00,,BKN028,0.00,VWS V14.01,2013-04-05 08:18:00,
2013-04-05 01:23:00,55.8,51.7,30.10,South,181,0.0,2.0,86,0.00,,BKN028,0.00,VWS V14.01,2013-04-05 08:23:00,
2013-04-05 01:28:00,55.6,51.5,30.10,NE,40,0.0,2.0,86,0.00,,BKN028,0.00,VWS V14.01,2013-04-05 08:28:00,
2013-04-05 01:33:00,55.4,51.6,30.10,NE,41,0.0,1.0,87,0.00,,BKN028,0.00,VWS V14.01,2013-04-05 08:33:00,
2013-04-05 01:38:00,55.3,51.8,30.10,SSE,158,0.0,2.0,88,0.00,,BKN028,0.00,VWS V14.01,2013-04-05 08:38:00,
2013-04-05 01:43:00,55.4,51.6,30.10,SW,218,0.0,2.0,87,0.00,,BKN028,0.00,VWS V14.01,2013-04-05 08:43:00,
2013-04-05 01:48:00,55.5,51.7,30.10,SW,218,0.0,2.0,87,0.00,,BKN028,0.00,VWS V14.01,2013-04-05 08:48:00,
2013-04-05 01:53:00,55.3,51.8,30.10,SSW,195,0.0,2.0,88,0.00,,BKN028,0.00,VWS V14.01,2013-04-05 08:53:00,
2013-04-05 01:58:00,55.1,51.6,30.10,SSE,150,0.0,2.0,88,0.00,,BKN028,0.00,VWS V14.01,2013-04-05 08:58:00,
2013-04-05 02:03:00,54.8,51.6,30.10,ESE,105,0.0,0.0,89,0.00,,OVC035,0.00,VWS V14.01,2013-04-05 09:03:00,
2013-04-05 02:08:00,54.5,51.3,30.10,East,91,0.0,0.0,89,0.00,,OVC035,0.00,VWS V14.01,2013-04-05 09:08:00,
2013-04-05 02:13:00,54.4,50.9,30.10,NNE,23,0.0,2.0,88,0.00,,OVC035,0.00,VWS V14.01,2013-04-05 09:13:00,
2013-04-05 02:18:00,54.6,51.1,30.10,NNE,23,0.0,2.0,88,0.00,,OVC035,0.00,VWS V14.01,2013-04-05 09:18:00,
2013-04-05 02:23:00,54.7,50.3,30.10,NNE,23,0.0,2.0,85,0.00,,OVC035,0.00,VWS V14.01,2013-04-05 09:23:00,
2013-04-05 02:28:00,54.9,50.5,30.10,NNE,23,0.0,2.0,85,0.00,,OVC035,0.00,VWS V14.01,2013-04-05 09:28:00,
2013-04-05 02:33:00,55.0,50.6,30.10,NNE,23,0.0,0.0,85,0.00,,OVC035,0.00,VWS V14.01,2013-04-05 09:33:00,
2013-04-05 02:38:00,54.8,50.7,30.10,NNE,23,0.0,0.0,86,0.00,,OVC035,0.00,VWS V14.01,2013-04-05 09:38:00,
2013-04-05 02:43:00,54.5,50.7,30.10,NNE,23,0.0,0.0,87,0.00,,OVC035,0.00,VWS V14.01,2013-04-05 09:43:00,
2013-04-05 02:48:00,54.2,50.4,30.10,NNE,23,0.0,0.0,87,0.00,,OVC035,0.00,VWS V14.01,2013-04-05 09:48:00,
2013-04-05 02:53:00,54.1,50.6,30.10,NNE,23,0.0,0.0,88,0.00,,OVC035,0.00,VWS V14.01,2013-04-05 09:53:00,
2013-04-05 02:59:00,54.0,50.5,30.10,NNE,23,0.0,0.0,88,0.00,,OVC035,0.00,VWS V14.01,2013-04-05 09:59:00,
2013-04-05 03:04:00,53.9,50.4,30.10,NNE,23,0.0,0.0,88,0.00,,BKN031,0.00,VWS V14.01,2013-04-05 10:04:00,
2013-04-05 03:09:00,53.9,50.4,30.11,NNE,23,0.0,1.0,88,0.00,,BKN031,0.00,VWS V14.01,2013-04-05 10:09:00,
2013-04-05 03:14:00,53.9,50.4,30.11,North,349,0.0,1.0,88,0.00,,BKN031,0.00,VWS V14.01,2013-04-05 10:14:00,
2013-04-05 03:19:00,53.9,50.4,30.10,North,349,0.0,1.0,88,0.00,,BKN031,0.00,VWS V14.01,2013-04-05 10:19:00,
2013-04-05 03:24:00,53.8,50.6,30.11,North,350,0.0,1.0,89,0.00,,BKN031,0.00,VWS V14.01,2013-04-05 10:24:00,
2013-04-05 03:29:00,53.7,50.5,30.11,North,349,0.0,1.0,89,0.00,,BKN031,0.00,VWS V14.01,2013-04-05 10:29:00,
2013-04-05 03:34:00,53.9,51.0,30.11,North,349,0.0,0.0,90,0.00,,BKN031,0.00,VWS V14.01,2013-04-05 10:34:00,
2013-04-05 03:39:00,54.0,50.8,30.11,SSW,205,0.0,1.0,89,0.00,,BKN031,0.00,VWS V14.01,2013-04-05 10:39:00,
2013-04-05 03:44:00,54.1,50.9,30.11,SSW,205,0.0,1.0,89,0.00,,BKN031,0.00,VWS V14.01,2013-04-05 10:44:00,
2013-04-05 03:49:00,54.2,51.0,30.11,SSW,205,0.0,1.0,89,0.00,,BKN031,0.00,VWS V14.01,2013-04-05 10:49:00,
2013-04-05 03:54:00,54.3,50.8,30.11,SSW,211,0.0,1.0,88,0.00,,BKN031,0.00,VWS V14.01,2013-04-05 10:54:00,
2013-04-05 03:59:00,54.4,50.9,30.11,SSW,211,0.0,1.0,88,0.00,,BKN031,0.00,VWS V14.01,2013-04-05 10:59:00,
2013-04-05 04:04:00,54.5,51.0,30.11,SSW,212,0.0,1.0,88,0.00,,BKN031,0.00,VWS V14.01,2013-04-05 11:04:00,
2013-04-05 04:09:00,54.5,51.0,30.10,SSW,207,0.0,1.0,88,0.00,,BKN031,0.00,VWS V14.01,2013-04-05 11:09:00,
2013-04-05 04:14:00,54.6,50.8,30.10,SSW,195,0.0,1.0,87,0.00,,BKN031,0.00,VWS V14.01,2013-04-05 11:14:00,
2013-04-05 04:19:00,54.6,50.8,30.10,SSW,195,0.0,1.0,87,0.00,,BKN031,0.00,VWS V14.01,2013-04-05 11:19:00,
2013-04-05 04:24:00,54.6,51.1,30.10,South,169,0.0,1.0,88,0.00,,BKN031,0.00,VWS V14.01,2013-04-05 11:24:00,
2013-04-05 04:29:00,54.4,50.9,30.10,South,172,0.0,1.0,88,0.00,,BKN031,0.00,VWS V14.01,2013-04-05 11:29:00,
2013-04-05 04:34:00,54.2,50.7,30.11,SSW,210,0.0,1.0,88,0.00,,BKN031,0.00,VWS V14.01,2013-04-05 11:34:00,
2013-04-05 04:39:00,54.0,50.8,30.11,SSE,150,0.0,1.0,89,0.00,,BKN031,0.00,VWS V14.01,2013-04-05 11:39:00,
2013-04-05 04:44:00,53.8,50.6,30.11,SSE,150,0.0,1.0,89,0.00,,BKN031,0.00,VWS V14.01,2013-04-05 11:44:00,
2013-04-05 04:49:00,53.9,50.7,30.11,SSE,150,1.0,1.0,89,0.00,,BKN031,0.00,VWS V14.01,2013-04-05 11:49:00,
2013-04-05 04:54:00,54.2,51.0,30.11,SW,215,0.0,2.0,89,0.00,,BKN031,0.00,VWS V14.01,2013-04-05 11:54:00,
2013-04-05 04:59:00,54.4,50.9,30.11,SW,215,0.0,2.0,88,0.00,,BKN031,0.00,VWS V14.01,2013-04-05 11:59:00,
2013-04-05 05:04:00,54.6,51.1,30.11,SSW,205,0.0,2.0,88,0.00,,OVC033,0.00,VWS V14.01,2013-04-05 12:04:00,
2013-04-05 05:09:00,54.7,51.2,30.11,WSW,249,0.0,2.0,88,0.00,,OVC033,0.00,VWS V14.01,2013-04-05 12:09:00,
2013-04-05 05:14:00,54.9,51.4,30.11,SW,221,0.0,3.0,88,0.00,,OVC033,0.00,VWS V14.01,2013-04-05 12:14:00,
2013-04-05 05:19:00,54.9,51.4,30.11,SSE,160,0.0,3.0,88,0.00,,OVC033,0.00,VWS V14.01,2013-04-05 12:19:00,
2013-04-05 05:24:00,54.9,51.4,30.11,SSW,198,0.0,3.0,88,0.00,,OVC033,0.00,VWS V14.01,2013-04-05 12:24:00,
2013-04-05 05:29:00,55.0,51.8,30.11,SW,217,1.0,3.0,89,0.00,,OVC033,0.00,VWS V14.01,2013-04-05 12:29:00,
2013-04-05 05:34:00,55.0,51.8,30.11,South,188,2.0,3.0,89,0.00,,OVC033,0.00,VWS V14.01,2013-04-05 12:34:00,
2013-04-05 05:40:00,54.9,51.7,30.11,South,169,0.0,4.0,89,0.00,,OVC033,0.00,VWS V14.01,2013-04-05 12:40:00,
2013-04-05 05:45:00,54.8,51.6,30.11,SSE,165,2.0,4.0,89,0.00,,OVC033,0.00,VWS V14.01,2013-04-05 12:45:00,
2013-04-05 05:49:00,54.7,51.5,30.11,SSW,203,0.0,4.0,89,0.00,,OVC033,0.00,VWS V14.01,2013-04-05 12:49:00,
2013-04-05 05:55:00,54.6,51.4,30.11,SSW,203,1.0,4.0,89,0.00,,OVC033,0.00,VWS V14.01,2013-04-05 12:55:00,
2013-04-05 06:00:00,54.5,51.3,30.11,SSW,203,1.0,4.0,89,0.00,,OVC033,0.00,VWS V14.01,2013-04-05 13:00:00,
2013-04-05 06:05:00,54.3,51.1,30.11,SSW,198,0.0,2.0,89,0.00,,BKN033,0.00,VWS V14.01,2013-04-05 13:05:00,
2013-04-05 06:10:00,54.2,51.0,30.11,South,184,0.0,2.0,89,0.00,,BKN033,0.00,VWS V14.01,2013-04-05 13:10:00,
2013-04-05 06:15:00,54.1,50.9,30.11,SSW,203,2.0,2.0,89,0.00,,BKN033,0.00,VWS V14.01,2013-04-05 13:15:00,
2013-04-05 06:20:00,54.2,51.3,30.11,SSW,197,0.0,2.0,90,0.00,,BKN033,0.00,VWS V14.01,2013-04-05 13:20:00,
2013-04-05 06:25:00,54.3,51.4,30.11,ESE,120,1.0,2.0,90,0.00,,BKN033,0.00,VWS V14.01,2013-04-05 13:25:00,
2013-04-05 06:30:00,54.4,51.5,30.11,South,177,1.0,2.0,90,0.00,,BKN033,0.00,VWS V14.01,2013-04-05 13:30:00,
2013-04-05 06:35:00,54.4,51.5,30.11,SSW,205,0.0,1.0,90,0.00,,BKN033,0.00,VWS V14.01,2013-04-05 13:35:00,
2013-04-05 06:40:00,54.4,51.2,30.11,SSW,198,0.0,3.0,89,0.00,,BKN033,0.00,VWS V14.01,2013-04-05 13:40:00,
2013-04-05 06:45:00,54.3,51.1,30.11,SSW,198,0.0,3.0,89,0.00,,BKN033,0.00,VWS V14.01,2013-04-05 13:45:00,
2013-04-05 06:50:00,54.2,51.0,30.11,SSW,204,0.0,3.0,89,0.00,,BKN033,0.00,VWS V14.01,2013-04-05 13:50:00,
2013-04-05 06:55:00,54.0,51.1,30.11,SSW,194,1.0,3.0,90,0.00,,BKN033,0.00,VWS V14.01,2013-04-05 13:55:00,
2013-04-05 07:00:00,54.0,51.1,30.11,SSW,195,0.0,3.0,90,0.00,,BKN033,0.00,VWS V14.01,2013-04-05 14:00:00,
2013-04-05 07:05:00,53.9,51.3,30.11,WNW,299,0.0,1.0,91,0.00,,BKN037,0.00,VWS V14.01,2013-04-05 14:05:00,
2013-04-05 07:10:00,53.8,50.9,30.12,WNW,300,0.0,1.0,90,0.00,,BKN037,0.00,VWS V14.01,2013-04-05 14:10:00,
2013-04-05 07:15:00,53.6,51.0,30.11,WNW,299,0.0,1.0,91,0.00,,BKN037,0.00,VWS V14.01,2013-04-05 14:15:00,
2013-04-05 07:20:00,53.5,50.9,30.12,WNW,299,0.0,1.0,91,0.00,,BKN037,0.00,VWS V14.01,2013-04-05 14:20:00,
2013-04-05 07:25:00,53.5,51.2,30.12,SSW,203,0.0,1.0,92,0.00,,BKN037,0.00,VWS V14.01,2013-04-05 14:25:00,
2013-04-05 07:30:00,54.1,51.8,30.12,SSW,205,2.0,2.0,92,0.00,,BKN037,0.00,VWS V14.01,2013-04-05 14:30:00,
2013-04-05 07:36:00,54.2,51.6,30.12,SSW,200,2.0,3.0,91,0.00,,BKN037,0.00,VWS V14.01,2013-04-05 14:36:00,
2013-04-05 07:41:00,54.2,51.6,30.12,South,187,0.0,3.0,91,0.00,,BKN037,0.00,VWS V14.01,2013-04-05 14:41:00,
2013-04-05 07:46:00,54.2,51.6,30.12,SSW,205,1.0,4.0,91,0.00,,BKN037,0.00,VWS V14.01,2013-04-05 14:46:00,
2013-04-05 07:51:00,54.3,51.7,30.13,SSE,167,0.0,4.0,91,0.00,,BKN037,0.00,VWS V14.01,2013-04-05 14:51:00,
2013-04-05 07:56:00,54.3,51.7,30.12,South,191,0.0,4.0,91,0.00,,BKN037,0.00,VWS V14.01,2013-04-05 14:56:00,
2013-04-05 08:01:00,55.0,52.1,30.13,SSW,205,2.0,2.0,90,0.00,,FEW039,0.00,VWS V14.01,2013-04-05 15:01:00,
2013-04-05 08:06:00,56.0,52.5,30.13,SSW,193,2.0,6.0,88,0.00,,FEW039,0.00,VWS V14.01,2013-04-05 15:06:00,
2013-04-05 08:11:00,56.6,52.8,30.13,South,191,3.0,6.0,87,0.00,,FEW039,0.00,VWS V14.01,2013-04-05 15:11:00,
2013-04-05 08:16:00,57.2,53.1,30.13,SSE,167,2.0,6.0,86,0.00,,FEW039,0.00,VWS V14.01,2013-04-05 15:16:00,
2013-04-05 08:22:00,57.7,53.2,30.13,SSE,151,2.0,6.0,85,0.00,,FEW039,0.00,VWS V14.01,2013-04-05 15:22:00,
2013-04-05 08:27:00,58.2,53.4,30.13,SE,142,2.0,6.0,84,0.00,,FEW039,0.00,VWS V14.01,2013-04-05 15:27:00,
2013-04-05 08:32:00,58.9,53.8,30.13,South,187,3.0,4.0,83,0.00,,FEW039,0.00,VWS V14.01,2013-04-05 15:32:00,
2013-04-05 08:37:00,59.6,53.4,30.13,SSW,211,4.0,5.0,80,0.00,,FEW039,0.00,VWS V14.01,2013-04-05 15:37:00,
2013-04-05 08:42:00,60.1,53.2,30.13,SSW,207,3.0,6.0,78,0.00,,FEW039,0.00,VWS V14.01,2013-04-05 15:42:00,
2013-04-05 08:47:00,60.6,54.1,30.13,SSW,209,2.0,6.0,79,0.00,,FEW039,0.00,VWS V14.01,2013-04-05 15:47:00,
2013-04-05 08:52:00,61.2,52.5,30.13,SSW,212,2.0,6.0,73,0.00,,FEW039,0.00,VWS V14.01,2013-04-05 15:52:00,
2013-04-05 08:57:00,61.6,52.9,30.13,South,190,2.0,6.0,73,0.00,,FEW039,0.00,VWS V14.01,2013-04-05 15:57:00,
2013-04-05 09:02:00,61.8,52.3,30.13,WSW,253,1.0,3.0,71,0.00,,CLR,0.00,VWS V14.01,2013-04-05 16:02:00,
2013-04-05 09:07:00,62.1,52.6,30.13,South,172,1.0,3.0,71,0.00,,CLR,0.00,VWS V14.01,2013-04-05 16:07:00,
2013-04-05 09:12:00,62.4,52.1,30.13,South,188,0.0,4.0,69,0.00,,CLR,0.00,VWS V14.01,2013-04-05 16:12:00,
2013-04-05 09:17:00,62.4,52.1,30.13,South,176,1.0,4.0,69,0.00,,CLR,0.00,VWS V14.01,2013-04-05 16:17:00,
2013-04-05 09:22:00,63.2,52.1,30.12,NNE,22,0.0,4.0,67,0.00,,CLR,0.00,VWS V14.01,2013-04-05 16:22:00,
2013-04-05 09:27:00,63.3,51.3,30.12,SSW,204,1.0,4.0,65,0.00,,CLR,0.00,VWS V14.01,2013-04-05 16:27:00,
2013-04-05 09:32:00,63.8,51.8,30.12,SSE,165,1.0,2.0,65,0.00,,CLR,0.00,VWS V14.01,2013-04-05 16:32:00,
2013-04-05 09:37:00,63.4,50.6,30.12,WNW,290,0.0,6.0,63,0.00,,CLR,0.00,VWS V14.01,2013-04-05 16:37:00,
2013-04-05 09:42:00,63.2,51.2,30.12,WSW,255,1.0,6.0,65,0.00,,CLR,0.00,VWS V14.01,2013-04-05 16:42:00,
2013-04-05 09:47:00,63.5,52.0,30.13,WNW,291,1.0,6.0,66,0.00,,CLR,0.00,VWS V14.01,2013-04-05 16:47:00,
2013-04-05 09:52:00,63.7,50.9,30.13,West,281,0.0,6.0,63,0.00,,CLR,0.00,VWS V14.01,2013-04-05 16:52:00,
2013-04-05 09:57:00,64.1,50.4,30.13,South,190,2.0,6.0,61,0.00,,CLR,0.00,VWS V14.01,2013-04-05 16:57:00,
2013-04-05 10:02:00,64.2,50.9,30.13,SW,218,2.0,5.0,62,0.00,,CLR,0.00,VWS V14.01,2013-04-05 17:02:00,
2013-04-05 10:07:00,64.3,51.0,30.12,SSE,167,3.0,5.0,62,0.00,,CLR,0.00,VWS V14.01,2013-04-05 17:07:00,
2013-04-05 10:12:00,64.7,51.0,30.12,WSW,238,3.0,5.0,61,0.00,,CLR,0.00,VWS V14.01,2013-04-05 17:12:00,
2013-04-05 10:17:00,65.1,50.9,30.12,South,184,2.0,5.0,60,0.00,,CLR,0.00,VWS V14.01,2013-04-05 17:17:00,
2013-04-05 10:22:00,65.1,51.3,30.13,South,179,4.0,5.0,61,0.00,,CLR,0.00,VWS V14.01,2013-04-05 17:22:00,
2013-04-05 10:27:00,65.1,51.3,30.13,ENE,61,2.0,7.0,61,0.00,,CLR,0.00,VWS V14.01,2013-04-05 17:27:00,
2013-04-05 10:32:00,65.1,51.3,30.13,West,272,1.0,6.0,61,0.00,,CLR,0.00,VWS V14.01,2013-04-05 17:32:00,
2013-04-05 10:37:00,65.5,51.3,30.13,South,170,3.0,6.0,60,0.00,,CLR,0.00,VWS V14.01,2013-04-05 17:37:00,
2013-04-05 10:43:00,65.9,50.7,30.13,SSW,208,1.0,6.0,58,0.00,,CLR,0.00,VWS V14.01,2013-04-05 17:43:00,
2013-04-05 10:48:00,66.2,50.5,30.13,SSW,211,4.0,6.0,57,0.00,,CLR,0.00,VWS V14.01,2013-04-05 17:48:00,
2013-04-05 10:53:00,66.3,51.6,30.13,South,177,3.0,7.0,59,0.00,,CLR,0.00,VWS V14.01,2013-04-05 17:53:00,
2013-04-05 10:58:00,66.7,51.5,30.13,West,270,2.0,7.0,58,0.00,,CLR,0.00,VWS V14.01,2013-04-05 17:58:00,
2013-04-05 11:03:00,66.3,50.6,30.14,WSW,250,2.0,6.0,57,0.00,,CLR,0.00,VWS V14.01,2013-04-05 18:03:00,
2013-04-05 11:08:00,65.6,50.4,30.14,ESE,115,0.0,8.0,58,0.00,,CLR,0.00,VWS V14.01,2013-04-05 18:08:00,
2013-04-05 11:13:00,65.4,50.7,30.14,WSW,245,1.0,8.0,59,0.00,,CLR,0.00,VWS V14.01,2013-04-05 18:13:00,
2013-04-05 11:18:00,64.7,51.4,30.14,South,176,0.0,10.0,62,0.00,,CLR,0.00,VWS V14.01,2013-04-05 18:18:00,
2013-04-05 11:23:00,64.5,50.8,30.14,WSW,249,9.0,10.0,61,0.00,,CLR,0.00,VWS V14.01,2013-04-05 18:23:00,
2013-04-05 11:28:00,64.4,51.5,30.14,ENE,58,3.0,10.0,63,0.00,,CLR,0.00,VWS V14.01,2013-04-05 18:28:00,
2013-04-05 11:33:00,64.9,51.2,30.14,WNW,287,4.0,7.0,61,0.00,,CLR,0.00,VWS V14.01,2013-04-05 18:33:00,
2013-04-05 11:38:00,65.7,52.3,30.14,West,274,5.0,7.0,62,0.00,,CLR,0.00,VWS V14.01,2013-04-05 18:38:00,
2013-04-05 11:43:00,65.7,50.1,30.14,West,270,4.0,11.0,57,0.00,,CLR,0.00,VWS V14.01,2013-04-05 18:43:00,
2013-04-05 11:48:00,65.6,50.9,30.14,ESE,123,0.0,11.0,59,0.00,,CLR,0.00,VWS V14.01,2013-04-05 18:48:00,
2013-04-05 11:53:00,66.3,51.1,30.14,WSW,253,6.0,11.0,58,0.00,,CLR,0.00,VWS V14.01,2013-04-05 18:53:00,
2013-04-05 11:58:00,66.0,52.2,30.14,NW,326,5.0,11.0,61,0.00,,CLR,0.00,VWS V14.01,2013-04-05 18:58:00,
2013-04-05 12:03:00,66.2,52.4,30.14,ESE,119,3.0,7.0,61,0.00,,FEW036,0.00,VWS V14.01,2013-04-05 19:03:00,
2013-04-05 12:08:00,66.3,50.6,30.14,SW,228,3.0,9.0,57,0.00,,FEW036,0.00,VWS V14.01,2013-04-05 19:08:00,
2013-04-05 12:14:00,66.3,50.2,30.14,WNW,284,6.0,11.0,56,0.00,,FEW036,0.00,VWS V14.01,2013-04-05 19:14:00,
2013-04-05 12:19:00,66.3,50.6,30.14,NNW,329,7.0,12.0,57,0.00,,FEW036,0.00,VWS V14.01,2013-04-05 19:19:00,
2013-04-05 12:24:00,66.0,50.3,30.14,WNW,294,5.0,12.0,57,0.00,,FEW036,0.00,VWS V14.01,2013-04-05 19:24:00,
2013-04-05 12:29:00,66.2,51.0,30.14,West,269,6.0,13.0,58,0.00,,FEW036,0.00,VWS V14.01,2013-04-05 19:29:00,
2013-04-05 12:34:00,66.2,51.0,30.14,WSW,239,3.0,9.0,58,0.00,,FEW036,0.00,VWS V14.01,2013-04-05 19:34:00,
2013-04-05 12:40:00,66.5,49.8,30.14,SE,145,3.0,12.0,55,0.00,,FEW036,0.00,VWS V14.01,2013-04-05 19:40:00,
2013-04-05 12:45:00,66.9,51.7,30.14,NW,308,3.0,12.0,58,0.00,,FEW036,0.00,VWS V14.01,2013-04-05 19:45:00,
2013-04-05 12:50:00,67.3,51.1,30.14,WSW,242,3.0,12.0,56,0.00,,FEW036,0.00,VWS V14.01,2013-04-05 19:50:00,
2013-04-05 12:55:00,66.9,51.2,30.14,NW,318,3.0,13.0,57,0.00,,FEW036,0.00,VWS V14.01,2013-04-05 19:55:00,
2013-04-05 13:00:00,66.7,51.0,30.14,West,259,5.0,13.0,57,0.00,,FEW036,0.00,VWS V14.01,2013-04-05 20:00:00,
2013-04-05 13:05:00,67.1,51.8,30.14,ESE,115,1.0,9.0,58,0.00,,CLR,0.00,VWS V14.01,2013-04-05 20:05:00,
2013-04-05 13:10:00,67.4,51.7,30.13,North,353,1.0,10.0,57,0.00,,CLR,0.00,VWS V14.01,2013-04-05 20:10:00,
2013-04-05 13:15:00,67.4,50.7,30.13,West,274,6.0,10.0,55,0.00,,CLR,0.00,VWS V14.01,2013-04-05 20:15:00,
2013-04-05 13:20:00,67.1,50.9,30.13,WSW,249,7.0,10.0,56,0.00,,CLR,0.00,VWS V14.01,2013-04-05 20:20:00,
2013-04-05 13:25:00,66.3,50.6,30.12,WSW,245,4.0,13.0,57,0.00,,CLR,0.00,VWS V14.01,2013-04-05 20:25:00,
2013-04-05 13:30:00,66.4,50.2,30.12,WNW,297,6.0,13.0,56,0.00,,CLR,0.00,VWS V14.01,2013-04-05 20:30:00,
2013-04-05 13:35:00,65.7,50.1,30.12,SE,137,3.0,8.0,57,0.00,,CLR,0.00,VWS V14.01,2013-04-05 20:35:00,
2013-04-05 13:40:00,65.9,50.7,30.12,WNW,291,4.0,8.0,58,0.00,,CLR,0.00,VWS V14.01,2013-04-05 20:40:00,
2013-04-05 13:45:00,66.0,50.3,30.11,South,176,7.0,11.0,57,0.00,,CLR,0.00,VWS V14.01,2013-04-05 20:45:00,
2013-04-05 13:50:00,66.4,50.2,30.11,WNW,288,3.0,11.0,56,0.00,,CLR,0.00,VWS V14.01,2013-04-05 20:50:00,
2013-04-05 13:55:00,66.8,51.1,30.11,WNW,288,1.0,11.0,57,0.00,,CLR,0.00,VWS V14.01,2013-04-05 20:55:00,
2013-04-05 14:00:00,67.6,51.8,30.11,SE,143,2.0,11.0,57,0.00,,CLR,0.00,VWS V14.01,2013-04-05 21:00:00,
2013-04-05 14:05:00,67.5,50.8,30.11,WNW,302,4.0,10.0,55,0.00,,CLR,0.00,VWS V14.01,2013-04-05 21:05:00,
2013-04-05 14:10:00,67.3,50.1,30.11,WNW,288,5.0,10.0,54,0.00,,CLR,0.00,VWS V14.01,2013-04-05 21:10:00,
2013-04-05 14:15:00,67.7,51.0,30.11,SSE,155,1.0,10.0,55,0.00,,CLR,0.00,VWS V14.01,2013-04-05 21:15:00,
2013-04-05 14:20:00,68.0,51.2,30.11,SW,218,5.0,10.0,55,0.00,,CLR,0.00,VWS V14.01,2013-04-05 21:20:00,
2013-04-05 14:25:00,68.7,51.4,30.11,WNW,299,4.0,10.0,54,0.00,,CLR,0.00,VWS V14.01,2013-04-05 21:25:00,
2013-04-05 14:30:00,68.0,51.2,30.11,SSW,211,3.0,10.0,55,0.00,,CLR,0.00,VWS V14.01,2013-04-05 21:30:00,
2013-04-05 14:35:00,67.3,51.1,30.11,SW,224,2.0,7.0,56,0.00,,CLR,0.00,VWS V14.01,2013-04-05 21:35:00,
2013-04-05 14:40:00,66.3,51.1,30.11,West,266,7.0,9.0,58,0.00,,CLR,0.00,VWS V14.01,2013-04-05 21:40:00,
2013-04-05 14:46:00,65.8,51.5,30.11,SE,134,2.0,10.0,60,0.00,,CLR,0.00,VWS V14.01,2013-04-05 21:46:00,
2013-04-05 14:51:00,66.1,50.9,30.11,East,79,2.0,10.0,58,0.00,,CLR,0.00,VWS V14.01,2013-04-05 21:51:00,
2013-04-05 14:55:00,66.3,51.6,30.11,ESE,119,2.0,10.0,59,0.00,,CLR,0.00,VWS V14.01,2013-04-05 21:55:00,
2013-04-05 15:01:00,66.9,51.7,30.10,SSW,204,4.0,10.0,58,0.00,,CLR,0.00,VWS V14.01,2013-04-05 22:01:00,
2013-04-05 15:06:00,67.7,51.9,30.10,WSW,247,2.0,3.0,57,0.00,,CLR,0.00,VWS V14.01,2013-04-05 22:06:00,
2013-04-05 15:11:00,68.3,51.5,30.10,SSE,163,2.0,6.0,55,0.00,,CLR,0.00,VWS V14.01,2013-04-05 22:11:00,
2013-04-05 15:16:00,68.2,51.4,30.10,SSE,151,3.0,6.0,55,0.00,,CLR,0.00,VWS V14.01,2013-04-05 22:16:00,
2013-04-05 15:21:00,68.6,50.3,30.10,SW,230,1.0,7.0,52,0.00,,CLR,0.00,VWS V14.01,2013-04-05 22:21:00,
2013-04-05 15:26:00,68.9,50.6,30.10,SW,218,3.0,7.0,52,0.00,,CLR,0.00,VWS V14.01,2013-04-05 22:26:00,
2013-04-05 15:31:00,69.1,50.8,30.10,SSW,212,6.0,6.0,52,0.00,,CLR,0.00,VWS V14.01,2013-04-05 22:31:00,
2013-04-05 15:36:00,69.2,51.9,30.10,SW,221,5.0,8.0,54,0.00,,CLR,0.00,VWS V14.01,2013-04-05 22:36:00,
2013-04-05 15:41:00,69.3,51.5,30.10,South,188,1.0,8.0,53,0.00,,CLR,0.00,VWS V14.01,2013-04-05 22:41:00,
2013-04-05 15:46:00,68.7,50.9,30.10,West,259,3.0,9.0,53,0.00,,CLR,0.00,VWS V14.01,2013-04-05 22:46:00,
2013-04-05 15:51:00,68.7,51.4,30.10,WNW,300,6.0,9.0,54,0.00,,CLR,0.00,VWS V14.01,2013-04-05 22:51:00,
2013-04-05 15:56:00,68.4,51.1,30.10,ESE,107,2.0,11.0,54,0.00,,CLR,0.00,VWS V14.01,2013-04-05 22:56:00,
2013-04-05 16:02:00,68.3,50.5,30.10,SSW,194,6.0,8.0,53,0.00,,SCT036,0.00,VWS V14.01,2013-04-05 23:02:00,
2013-04-05 16:07:00,68.1,50.8,30.10,SW,215,5.0,8.0,54,0.00,,SCT036,0.00,VWS V14.01,2013-04-05 23:07:00,
2013-04-05 16:12:00,67.6,50.4,30.10,SE,146,6.0,8.0,54,0.00,,SCT036,0.00,VWS V14.01,2013-04-05 23:12:00,
2013-04-05 16:17:00,67.3,50.1,30.10,WSW,257,3.0,8.0,54,0.00,,SCT036,0.00,VWS V14.01,2013-04-05 23:17:00,
2013-04-05 16:22:00,67.1,50.9,30.09,SSE,149,4.0,10.0,56,0.00,,SCT036,0.00,VWS V14.01,2013-04-05 23:22:00,
2013-04-05 16:27:00,66.8,50.6,30.09,East,101,2.0,10.0,56,0.00,,SCT036,0.00,VWS V14.01,2013-04-05 23:27:00,
2013-04-05 16:32:00,66.4,50.7,30.09,West,274,2.0,2.0,57,0.00,,SCT036,0.00,VWS V14.01,2013-04-05 23:32:00,
2013-04-05 16:37:00,66.3,50.2,30.10,ENE,70,5.0,9.0,56,0.00,,SCT036,0.00,VWS V14.01,2013-04-05 23:37:00,
2013-04-05 16:42:00,66.2,51.0,30.09,WSW,255,10.0,10.0,58,0.00,,SCT036,0.00,VWS V14.01,2013-04-05 23:42:00,
2013-04-05 16:47:00,66.0,50.8,30.09,SSW,212,1.0,10.0,58,0.00,,SCT036,0.00,VWS V14.01,2013-04-05 23:47:00,
2013-04-05 16:52:00,65.7,51.0,30.09,WNW,299,1.0,10.0,59,0.00,,SCT036,0.00,VWS V14.01,2013-04-05 23:52:00,
2013-04-05 16:57:00,65.6,50.9,30.09,South,188,4.0,10.0,59,0.00,,SCT036,0.00,VWS V14.01,2013-04-05 23:57:00,
2013-04-05 17:02:00,65.7,51.0,30.09,SE,134,1.0,5.0,59,0.00,,CLR,0.00,VWS V14.01,2013-04-06 00:02:00,
2013-04-05 17:07:00,65.9,51.2,30.09,SW,218,2.0,6.0,59,0.00,,CLR,0.00,VWS V14.01,2013-04-06 00:07:00,
2013-04-05 17:12:00,65.8,51.1,30.09,SSW,197,2.0,8.0,59,0.00,,CLR,0.00,VWS V14.01,2013-04-06 00:12:00,
2013-04-05 17:18:00,65.7,51.0,30.10,SSE,167,2.0,8.0,59,0.00,,CLR,0.00,VWS V14.01,2013-04-06 00:18:00,
2013-04-05 17:23:00,65.8,51.1,30.09,NW,305,2.0,8.0,59,0.00,,CLR,0.00,VWS V14.01,2013-04-06 00:23:00,
2013-04-05 17:28:00,66.4,51.7,30.09,SSE,163,1.0,8.0,59,0.00,,CLR,0.00,VWS V14.01,2013-04-06 00:28:00,
2013-04-05 17:33:00,66.9,51.7,30.10,SW,226,3.0,6.0,58,0.00,,CLR,0.00,VWS V14.01,2013-04-06 00:33:00,
2013-04-05 17:38:00,67.0,50.8,30.10,ESE,122,3.0,7.0,56,0.00,,CLR,0.00,VWS V14.01,2013-04-06 00:38:00,
2013-04-05 17:43:00,66.9,51.2,30.09,WNW,288,4.0,10.0,57,0.00,,CLR,0.00,VWS V14.01,2013-04-06 00:43:00,
2013-04-05 17:48:00,66.3,51.1,30.09,WNW,295,0.0,10.0,58,0.00,,CLR,0.00,VWS V14.01,2013-04-06 00:48:00,
2013-04-05 17:53:00,66.3,51.6,30.09,South,171,2.0,10.0,59,0.00,,CLR,0.00,VWS V14.01,2013-04-06 00:53:00,
2013-04-05 17:58:00,65.6,50.9,30.08,NW,314,2.0,10.0,59,0.00,,CLR,0.00,VWS V14.01,2013-04-06 00:58:00,
2013-04-05 18:03:00,64.7,50.5,30.08,SE,136,1.0,6.0,60,0.00,,CLR,0.00,VWS V14.01,2013-04-06 01:03:00,
2013-04-05 18:08:00,64.2,50.5,30.08,SW,221,4.0,7.0,61,0.00,,CLR,0.00,VWS V14.01,2013-04-06 01:08:00,
2013-04-05 18:13:00,63.8,50.5,30.08,SSE,150,5.0,7.0,62,0.00,,CLR,0.00,VWS V14.01,2013-04-06 01:13:00,
2013-04-05 18:18:00,63.6,50.4,30.08,WSW,239,2.0,7.0,62,0.00,,CLR,0.00,VWS V14.01,2013-04-06 01:18:00,
2013-04-05 18:23:00,63.4,50.6,30.08,South,191,6.0,8.0,63,0.00,,CLR,0.00,VWS V14.01,2013-04-06 01:23:00,
2013-04-05 18:28:00,63.3,50.5,30.08,East,98,0.0,8.0,63,0.00,,CLR,0.00,VWS V14.01,2013-04-06 01:28:00,
2013-04-05 18:33:00,63.2,50.4,30.09,WSW,239,4.0,6.0,63,0.00,,CLR,0.00,VWS V14.01,2013-04-06 01:33:00,
2013-04-05 18:38:00,63.0,50.7,30.09,East,80,2.0,10.0,64,0.00,,CLR,0.00,VWS V14.01,2013-04-06 01:38:00,
2013-04-05 18:43:00,62.9,50.5,30.09,SSE,153,5.0,10.0,64,0.00,,CLR,0.00,VWS V14.01,2013-04-06 01:43:00,
2013-04-05 18:48:00,62.7,50.8,30.09,South,169,1.0,10.0,65,0.00,,CLR,0.00,VWS V14.01,2013-04-06 01:48:00,
2013-04-05 18:53:00,62.5,50.6,30.09,SW,217,4.0,10.0,65,0.00,,CLR,0.00,VWS V14.01,2013-04-06 01:53:00,
2013-04-05 18:58:00,62.3,50.4,30.09,SW,218,1.0,10.0,65,0.00,,CLR,0.00,VWS V14.01,2013-04-06 01:58:00,
2013-04-05 19:03:00,62.1,50.6,30.08,SSW,203,2.0,9.0,66,0.00,,CLR,0.00,VWS V14.01,2013-04-06 02:03:00,
2013-04-05 19:08:00,61.9,50.8,30.08,South,183,2.0,9.0,67,0.00,,CLR,0.00,VWS V14.01,2013-04-06 02:08:00,
2013-04-05 19:13:00,61.7,50.6,30.08,SSW,200,2.0,9.0,67,0.00,,CLR,0.00,VWS V14.01,2013-04-06 02:13:00,
2013-04-05 19:19:00,61.4,50.8,30.08,SSW,200,2.0,9.0,68,0.00,,CLR,0.00,VWS V14.01,2013-04-06 02:19:00,
2013-04-05 19:24:00,61.1,50.9,30.08,South,173,3.0,9.0,69,0.00,,CLR,0.00,VWS V14.01,2013-04-06 02:24:00,
2013-04-05 19:29:00,60.8,50.6,30.08,SSW,210,4.0,9.0,69,0.00,,CLR,0.00,VWS V14.01,2013-04-06 02:29:00,
2013-04-05 19:34:00,60.5,50.7,30.08,NNW,330,3.0,8.0,70,0.00,,CLR,0.00,VWS V14.01,2013-04-06 02:34:00,
2013-04-05 19:39:00,60.3,50.5,30.08,South,191,4.0,8.0,70,0.00,,CLR,0.00,VWS V14.01,2013-04-06 02:39:00,
2013-04-05 19:44:00,60.1,50.7,30.08,SW,214,3.0,9.0,71,0.00,,CLR,0.00,VWS V14.01,2013-04-06 02:44:00,
2013-04-05 19:49:00,60.0,50.6,30.08,SE,135,2.0,9.0,71,0.00,,CLR,0.00,VWS V14.01,2013-04-06 02:49:00,
2013-04-05 19:54:00,59.8,50.8,30.08,WNW,293,3.0,11.0,72,0.00,,CLR,0.00,VWS V14.01,2013-04-06 02:54:00,
2013-04-05 19:59:00,59.6,50.6,30.08,SW,225,4.0,11.0,72,0.00,,CLR,0.00,VWS V14.01,2013-04-06 02:59:00,
2013-04-05 20:05:00,59.5,50.5,30.09,SE,135,1.0,5.0,72,0.00,,CLR,0.00,VWS V14.01,2013-04-06 03:05:00,
2013-04-05 20:10:00,59.2,50.6,30.09,West,264,2.0,9.0,73,0.00,,CLR,0.00,VWS V14.01,2013-04-06 03:10:00,
2013-04-05 20:15:00,59.0,50.4,30.09,South,172,1.0,9.0,73,0.00,,CLR,0.00,VWS V14.01,2013-04-06 03:15:00,
2013-04-05 20:20:00,58.8,50.5,30.09,West,262,5.0,9.0,74,0.00,,CLR,0.00,VWS V14.01,2013-04-06 03:20:00,
2013-04-05 20:25:00,58.6,50.3,30.09,West,271,3.0,10.0,74,0.00,,CLR,0.00,VWS V14.01,2013-04-06 03:25:00,
2013-04-05 20:30:00,58.6,50.3,30.09,SW,236,6.0,12.0,74,0.00,,CLR,0.00,VWS V14.01,2013-04-06 03:30:00,
2013-04-05 20:35:00,58.7,50.5,30.09,West,261,2.0,8.0,74,0.00,,CLR,0.00,VWS V14.01,2013-04-06 03:35:00,
2013-04-05 20:40:00,58.6,50.3,30.10,WSW,249,3.0,9.0,74,0.00,,CLR,0.00,VWS V14.01,2013-04-06 03:40:00,
2013-04-05 20:45:00,58.5,50.6,30.10,West,271,0.0,9.0,75,0.00,,CLR,0.00,VWS V14.01,2013-04-06 03:45:00,
2013-04-05 20:50:00,58.3,50.4,30.11,SW,235,3.0,9.0,75,0.00,,CLR,0.00,VWS V14.01,2013-04-06 03:50:00,
2013-04-05 20:55:00,58.3,50.4,30.11,West,278,1.0,9.0,75,0.00,,CLR,0.00,VWS V14.01,2013-04-06 03:55:00,
2013-04-05 21:00:00,58.2,50.3,30.11,SW,229,2.0,9.0,75,0.00,,CLR,0.00,VWS V14.01,2013-04-06 04:00:00,
2013-04-05 21:05:00,58.0,50.1,30.11,ENE,65,0.0,6.0,75,0.00,,CLR,0.00,VWS V14.01,2013-04-06 04:05:00,
2013-04-05 21:10:00,57.8,50.3,30.11,SSW,205,1.0,6.0,76,0.00,,CLR,0.00,VWS V14.01,2013-04-06 04:10:00,
2013-04-05 21:15:00,57.7,50.2,30.10,South,190,0.0,6.0,76,0.00,,CLR,0.00,VWS V14.01,2013-04-06 04:15:00,
2013-04-05 21:20:00,57.6,49.8,30.10,South,169,3.0,6.0,75,0.00,,CLR,0.00,VWS V14.01,2013-04-06 04:20:00,
2013-04-05 21:25:00,57.6,49.8,30.11,SE,139,1.0,6.0,75,0.00,,CLR,0.00,VWS V14.01,2013-04-06 04:25:00,
2013-04-05 21:30:00,57.6,49.8,30.11,ESE,103,0.0,6.0,75,0.00,,CLR,0.00,VWS V14.01,2013-04-06 04:30:00,
2013-04-05 21:35:00,57.4,49.5,30.11,SSW,210,0.0,1.0,75,0.00,,CLR,0.00,VWS V14.01,2013-04-06 04:35:00,
2013-04-05 21:40:00,57.1,49.3,30.12,SE,124,0.0,2.0,75,0.00,,CLR,0.00,VWS V14.01,2013-04-06 04:40:00,
2013-04-05 21:45:00,57.0,49.5,30.12,ESE,113,0.0,3.0,76,0.00,,CLR,0.00,VWS V14.01,2013-04-06 04:45:00,
2013-04-05 21:51:00,56.9,49.4,30.12,ESE,114,0.0,3.0,76,0.00,,CLR,0.00,VWS V14.01,2013-04-06 04:51:00,
2013-04-05 21:56:00,56.8,49.3,30.12,SE,136,0.0,3.0,76,0.00,,CLR,0.00,VWS V14.01,2013-04-06 04:56:00,
2013-04-05 22:01:00,56.7,49.2,30.12,ESE,103,0.0,3.0,76,0.00,,CLR,0.00,VWS V14.01,2013-04-06 05:01:00,
2013-04-05 22:06:00,56.8,49.0,30.13,SSE,160,0.0,1.0,75,0.00,,CLR,0.00,VWS V14.01,2013-04-06 05:06:00,
2013-04-05 22:11:00,56.7,48.5,30.13,SSW,195,0.0,1.0,74,0.00,,CLR,0.00,VWS V14.01,2013-04-06 05:11:00,
2013-04-05 22:16:00,56.7,48.5,30.13,WSW,253,1.0,3.0,74,0.00,,CLR,0.00,VWS V14.01,2013-04-06 05:16:00,
2013-04-05 22:21:00,57.0,48.4,30.13,South,177,0.0,3.0,73,0.00,,CLR,0.00,VWS V14.01,2013-04-06 05:21:00,
2013-04-05 22:26:00,57.0,48.4,30.12,SSE,158,0.0,3.0,73,0.00,,CLR,0.00,VWS V14.01,2013-04-06 05:26:00,
2013-04-05 22:31:00,56.9,48.3,30.12,SSE,148,1.0,2.0,73,0.00,,CLR,0.00,VWS V14.01,2013-04-06 05:31:00,
2013-04-05 22:36:00,56.6,48.4,30.12,SW,229,0.0,4.0,74,0.00,,CLR,0.00,VWS V14.01,2013-04-06 05:36:00,
2013-04-05 22:41:00,56.4,48.6,30.12,SW,229,0.0,4.0,75,0.00,,CLR,0.00,VWS V14.01,2013-04-06 05:41:00,
2013-04-05 22:46:00,56.1,48.7,30.12,SSW,204,0.0,4.0,76,0.00,,CLR,0.00,VWS V14.01,2013-04-06 05:46:00,
2013-04-05 22:51:00,55.8,48.4,30.12,SSW,204,0.0,4.0,76,0.00,,CLR,0.00,VWS V14.01,2013-04-06 05:51:00,
2013-04-05 22:57:00,55.6,48.5,30.12,South,172,1.0,4.0,77,0.00,,CLR,0.00,VWS V14.01,2013-04-06 05:57:00,
2013-04-05 23:02:00,55.6,48.2,30.12,South,176,0.0,0.0,76,0.00,,CLR,0.00,VWS V14.01,2013-04-06 06:02:00,
2013-04-05 23:07:00,55.6,48.9,30.12,South,176,0.0,0.0,78,0.00,,CLR,0.00,VWS V14.01,2013-04-06 06:07:00,
2013-04-05 23:12:00,55.4,48.3,30.12,South,176,0.0,0.0,77,0.00,,CLR,0.00,VWS V14.01,2013-04-06 06:12:00,
2013-04-05 23:17:00,55.1,48.4,30.13,South,176,0.0,0.0,78,0.00,,CLR,0.00,VWS V14.01,2013-04-06 06:17:00,
2013-04-05 23:22:00,54.9,48.2,30.13,SE,137,0.0,1.0,78,0.00,,CLR,0.00,VWS V14.01,2013-04-06 06:22:00,
2013-04-05 23:27:00,54.7,48.7,30.13,SE,136,0.0,1.0,80,0.00,,CLR,0.00,VWS V14.01,2013-04-06 06:27:00,
2013-04-05 23:32:00,54.5,48.8,30.13,SE,136,0.0,0.0,81,0.00,,CLR,0.00,VWS V14.01,2013-04-06 06:32:00,
2013-04-05 23:37:00,54.3,48.6,30.13,SE,136,0.0,0.0,81,0.00,,CLR,0.00,VWS V14.01,2013-04-06 06:37:00,
2013-04-05 23:42:00,54.2,48.8,30.13,East,96,0.0,3.0,82,0.00,,CLR,0.00,VWS V14.01,2013-04-06 06:42:00,
2013-04-05 23:47:00,54.1,48.7,30.13,SSE,162,0.0,3.0,82,0.00,,CLR,0.00,VWS V14.01,2013-04-06 06:47:00,
2013-04-05 23:52:00,54.1,48.7,30.13,WSW,249,0.0,3.0,82,0.00,,CLR,0.00,VWS V14.01,2013-04-06 06:52:00,
2013-04-05 23:57:00,54.2,48.8,30.13,South,180,1.0,3.0,82,0.00,,CLR,0.00,VWS V14.01,2013-04-06 06:57:00,